Providence, RI

5:25 AM EST on February 19, 2018 (GMT -0500)
Green State

Weather History for KPVD - March, 2013

Change the Weather History Date:

Wednesday, March 27, 2013

  Actual Average Record
Temperature  
Mean Temperature 43 °F 42 °F  
Max Temperature 56 °F 51 °F 81 °F (1998)
Min Temperature 30 °F 33 °F 16 °F (1975)
Degree Days  
Heating Degree Days 22 23  
Month to date heating degree days 740 722  
Since 1 July heating degree days 4561 4784  
Cooling Degree Days 0 0  
Month to date cooling degree days 0 0  
Year to date cooling degree days 0 0  
Moisture  
Dew Point 21 °F    
Average Humidity 45    
Maximum Humidity 63    
Minimum Humidity 26    
Precipitation  
Precipitation 0.00 in 0.18 in 1.25 in (1978)
Month to date precipitation 2.63 4.33  
Year to date precipitation 9.59 11.48  
Snow  
Snow 0.00 in 0.20 in 3.30 in (1959)
Month to date snowfall 4.9 5.2  
Since 1 July snowfall 46.3 32.9  
Snow Depth 0.00 in    
Sea Level Pressure  
Sea Level Pressure 29.81 in    
Wind  
Wind Speed 10 mph (WNW)    
Max Wind Speed 20 mph    
Max Gust Speed 26 mph    
Visibility 10 miles    
Events      
T = Trace of Precipitation, MM = Missing Value Source: NWS Daily Summary

Daily Weather History Graph

Daily Weather History Graph

Search for Another Location

Airport or City:

Trip Planner

Search our weather history database for the weather conditions in past years. The results will help you decide how hot, cold, wet, or windy it might be!

Date:

Astronomy

Mar. 27, 2013 Rise Set
Actual Time 6:36 AM EDT 7:05 PM EDT
Civil Twilight 6:08 AM EDT 7:33 PM EDT
Nautical Twilight 5:36 AM EDT 8:06 PM EDT
Astronomical Twilight 5:02 AM EDT 8:40 PM EDT
Moon 7:47 PM EDT (3/27) 6:25 AM EDT (3/27)
Length of Visible Light 13h 24m
Length of Day
12h 29m
Full, 100% of the Moon is Illuminated
Mar 27
Full
Apr 3
Last Quarter
Apr 10
New
Apr 18
First Quarter
Apr 25
Full

Hourly Weather History & Observations

Time (EDT) Temp. Windchill Dew Point Humidity Pressure Visibility Wind Dir Wind Speed Gust Speed Precip Events Conditions
12:51 AM 35.1 °F 31.0 °F 19.0 °F 52% 29.80 in 10.0 mi West 4.6 mph - N/A   Clear
1:51 AM 34.0 °F 29.8 °F 19.0 °F 54% 29.80 in 10.0 mi West 4.6 mph - N/A   Clear
2:51 AM 33.1 °F 28.7 °F 19.0 °F 56% 29.79 in 10.0 mi West 4.6 mph - N/A   Clear
3:51 AM 32.0 °F 26.4 °F 19.9 °F 61% 29.79 in 10.0 mi West 5.8 mph - N/A   Clear
4:51 AM 30.9 °F 26.2 °F 19.9 °F 64% 29.79 in 10.0 mi West 4.6 mph - N/A   Clear
5:51 AM 30.9 °F 26.2 °F 19.9 °F 64% 29.80 in 10.0 mi West 4.6 mph - N/A   Clear
6:51 AM 30.0 °F 24.1 °F 19.9 °F 66% 29.81 in 10.0 mi West 5.8 mph - N/A   Partly Cloudy
7:51 AM 39.9 °F 34.5 °F 21.0 °F 47% 29.82 in 10.0 mi WNW 8.1 mph - N/A   Partly Cloudy
8:51 AM 44.1 °F 38.6 °F 21.0 °F 40% 29.83 in 10.0 mi NW 10.4 mph - N/A   Partly Cloudy
9:51 AM 46.9 °F - 21.0 °F 36% 29.82 in 10.0 mi WNW 9.2 mph - N/A   Partly Cloudy
10:51 AM 50.0 °F - 21.0 °F 32% 29.81 in 10.0 mi WNW 11.5 mph 17.3 mph N/A   Scattered Clouds
11:51 AM 52.0 °F - 21.0 °F 30% 29.79 in 10.0 mi NNW 11.5 mph 20.7 mph N/A   Scattered Clouds
12:51 PM 54.0 °F - 19.0 °F 25% 29.78 in 10.0 mi NW 16.1 mph 23.0 mph N/A   Scattered Clouds
1:51 PM 52.0 °F - 18.0 °F 26% 29.77 in 10.0 mi NW 15.0 mph 24.2 mph N/A   Mostly Cloudy
2:51 PM 52.0 °F - 18.0 °F 26% 29.76 in 10.0 mi NW 11.5 mph - N/A   Mostly Cloudy
3:51 PM 52.0 °F - 19.9 °F 28% 29.77 in 10.0 mi NW 12.7 mph 18.4 mph N/A   Mostly Cloudy
4:51 PM 50.0 °F - 21.9 °F 33% 29.77 in 10.0 mi WNW 13.8 mph 24.2 mph N/A   Mostly Cloudy
5:51 PM 50.0 °F - 21.9 °F 33% 29.79 in 10.0 mi NW 15.0 mph - N/A   Mostly Cloudy
6:51 PM 50.0 °F - 21.0 °F 32% 29.81 in 10.0 mi NNW 12.7 mph 19.6 mph N/A   Mostly Cloudy
7:51 PM 46.9 °F - 23.0 °F 39% 29.83 in 10.0 mi WNW 11.5 mph - N/A   Mostly Cloudy
8:51 PM 45.0 °F 39.7 °F 27.0 °F 49% 29.85 in 10.0 mi NW 10.4 mph - N/A   Mostly Cloudy
9:51 PM 45.0 °F 40.1 °F 27.0 °F 49% 29.86 in 10.0 mi NW 9.2 mph - N/A   Mostly Cloudy
10:51 PM 44.1 °F 38.6 °F 28.0 °F 53% 29.87 in 10.0 mi NW 10.4 mph 18.4 mph N/A   Mostly Cloudy
11:51 PM 43.0 °F 38.2 °F 28.0 °F 56% 29.87 in 10.0 mi NW 8.1 mph - N/A   Scattered Clouds